Voltar ao catálogo

GALAXY 16

AtivoComunicaçõesGEO
NORAD 29236·PAYLOAD·🇺🇸 United States

Lançado Jun 18, 2006 de Sea Launch Platform

Loading…

TLE

AtualizadoSource: CelesTrak SupGP

Época: Sep 14, 2026, 16:26 UTC

1 29236C 06023A   26257.68501157 -.00000035  00000+0  00000+0 0  2572
2 29236   0.0143 198.4245 0002638 334.8420 328.0032  1.00273519    15

Acompanhe GALAXY 16 em tempo real com AllMySat

Download on the App Store